Home > Weather > Monza > Past weeks

Flag for Italy Past Weather in Monza, Italy — Yesterday and Last 2 Weeks

Now
84 °F

Passing clouds.


Feels Like: 86 °F
Forecast: 72 / 87 °F
Wind: 3 mph from East

Location: Milan / Linate

Current Time: Jul 25, 2016 at 12:11:04 PM

Latest Report: Jul 25, 2016 at 11:20 AM


Visibility: N/A

Pressure: 29.98 "Hg

Humidity: 51%

Dew Point: 64 °F

Location of MonzaLocation

Past Weather in Monza — Graph

°F

Monza Temperature Yesterday

Maximum temperature yesterday: 86 °F (at 1:50 PM)
Minimum temperature yesterday: 68 °F (at 5:50 AM)
Average temperature yesterday: 78 °F

High & Low Weather Summary for the Past Weeks

 TemperatureHumidityPressure
High93 °F (Jul 10, 2:50 PM)94% (Jul 12, 8:20 AM)30.15 "Hg (Jul 12, 8:20 AM)
Low57 °F (Jul 15, 4:20 AM)18% (Jul 16, 12:50 PM)29.65 "Hg (Jul 13, 3:50 PM)
Average77 °F55%29.98 "Hg
* Reported Jul 10 10:20 AM — Jul 25 10:50 AM, Monza, Weather by CustomWeather, © 2016

Note: Actual official high and low records may vary slightly from our data, if they occured in-between our weather recording intervals... More about our weather records

Advertising

Monza Weather History for the Previous 24 Hours

Scroll right to see more
 ConditionsComfort  
Time TempWeatherWind HumidityBarometerVisibility
10:50 AM
Mon, Jul 25
84 °FSunny.2 mph51%29.98 "Hg10 mi
10:20 AM82 °FSunny.2 mph55%29.98 "Hg10 mi
9:50 AM81 °FSunny.2 mph58%29.98 "Hg10 mi
9:20 AM79 °FSunny.1 mph61%29.98 "Hg10 mi
8:50 AM77 °FSunny.1 mph69%29.98 "Hg10 mi
8:20 AM75 °FSunny.No wind74%29.98 "Hg10 mi
7:50 AM73 °FSunny.2 mph78%29.98 "Hg10 mi
7:20 AM70 °FSunny.2 mph94%29.98 "Hg10 mi
6:50 AM68 °FClear.3 mph94%29.98 "Hg10 mi
6:20 AM68 °FClear.2 mph94%29.95 "Hg10 mi
5:50 AM68 °FClear.No wind94%29.95 "Hg10 mi
5:20 AM70 °FClear.No wind83%29.95 "Hg10 mi
4:50 AM70 °FClear.No wind83%29.98 "Hg10 mi
4:20 AM70 °FClear.2 mph83%29.98 "Hg10 mi
3:50 AM72 °FClear.No wind78%29.98 "Hg10 mi
3:20 AM70 °FClear.5 mph83%29.98 "Hg10 mi
2:50 AM73 °FClear.2 mph78%29.98 "Hg10 mi
2:20 AM72 °FClear.No wind78%29.98 "Hg10 mi
1:50 AM72 °FClear.No wind78%29.98 "Hg10 mi
1:20 AM73 °FClear.1 mph74%29.98 "Hg10 mi
12:50 AM73 °FClear.No wind74%29.98 "Hg10 mi
12:20 AM73 °FClear.No wind74%29.98 "Hg10 mi
11:50 PM
Sun, Jul 24
75 °FClear.No wind69%29.98 "Hg10 mi
11:20 PM75 °FClear.1 mph69%29.98 "Hg10 mi
10:50 PM75 °FClear.No wind69%29.98 "Hg10 mi
10:20 PM75 °FClear.No wind74%29.98 "Hg10 mi
9:50 PM79 °FSunny.2 mph61%29.98 "Hg10 mi
9:20 PM79 °FSunny.2 mph61%29.98 "Hg10 mi
8:50 PM81 °FPassing clouds.3 mph58%29.98 "HgN/A
8:20 PM82 °FPassing clouds.3 mph51%29.98 "HgN/A
7:50 PM82 °FPassing clouds.6 mph51%29.98 "HgN/A
7:20 PM84 °FPassing clouds.3 mph51%29.98 "HgN/A
6:50 PM84 °FPassing clouds.3 mph51%29.98 "HgN/A
6:20 PM86 °FSunny.2 mph49%29.98 "Hg10 mi
5:50 PM84 °FPassing clouds.7 mph48%29.98 "HgN/A
5:20 PM84 °FPassing clouds.6 mph51%29.98 "HgN/A
4:50 PM84 °FPassing clouds.7 mph51%30.01 "HgN/A
4:20 PM86 °FSunny.8 mph46%30.01 "Hg10 mi
3:50 PM86 °FPassing clouds.6 mph40%30.01 "HgN/A
3:20 PM86 °FPassing clouds.5 mph40%30.01 "HgN/A
2:50 PM86 °FSunny.5 mph43%30.01 "Hg10 mi
2:20 PM86 °FSunny.2 mph49%30.01 "Hg10 mi
1:50 PM86 °FSunny.3 mph49%30.01 "Hg10 mi
1:20 PM84 °FSunny.3 mph48%30.04 "Hg10 mi
12:50 PM82 °FSunny.3 mph55%30.04 "Hg10 mi
12:20 PM84 °FSunny.2 mph45%30.04 "Hg10 mi
Weather by CustomWeather, © 2016

See weather overviewHow to use our weather pages